Location: Columbus
(35.2256°N, 82.1549°W)
Time: 23:42:24
(UTC-04:00)

Envisat - Visible Passes

Search period start: 01 October 2022 00:00
Search period end: 11 October 2022 00:00
Orbit: 764 x 765 km, 98.2° (Epoch: 01 October)

Date Brightness Start Highest point End Pass type
(mag) Time Alt. Az. Time Alt. Az. Time Alt. Az.
01 Oct 5.6 04:40:15 10° NE 04:43:32 17° E 04:46:48 10° SE visible
01 Oct 3.3 06:17:53 10° N 06:22:43 45° WNW 06:27:31 10° SW visible
02 Oct 3.1 05:40:46 10° NNE 05:45:51 76° ESE 05:50:55 10° S visible
03 Oct 4.7 05:04:19 10° NE 05:08:48 31° E 05:13:15 10° SSE visible
03 Oct 4.0 06:43:30 10° NNW 06:47:38 26° WNW 06:51:46 10° WSW visible
04 Oct 5.8 04:29:19 10° ENE 04:31:34 13° E 04:33:48 10° ESE visible
04 Oct 3.0 06:05:55 10° N 06:10:54 60° WNW 06:15:53 10° SSW visible
05 Oct 3.6 05:28:59 10° NNE 05:33:59 57° E 05:38:57 10° S visible
06 Oct 5.1 04:52:49 10° NE 04:56:53 24° E 05:00:54 10° SSE visible
06 Oct 3.6 06:31:21 10° N 06:35:52 33° WNW 06:40:22 10° SW visible
07 Oct 2.9 05:53:59 10° N 05:59:05 79° WNW 06:04:08 10° SSW visible
08 Oct 4.1 05:17:16 10° NNE 05:22:06 43° E 05:26:53 10° S visible
08 Oct 4.3 06:57:13 10° NNW 07:00:44 19° WNW 07:04:14 10° WSW visible
09 Oct 5.5 04:41:29 10° NE 04:44:55 18° E 04:48:21 10° SE visible
09 Oct 3.3 06:19:18 10° N 06:24:05 43° WNW 06:28:50 10° SW visible
10 Oct 3.0 05:42:07 10° NNE 05:47:13 80° E 05:52:17 10° S visible
